Tracking 18852 objects as of 23-Nov-2017
HD Live streaming from Space Station
objects crossing your sky now

KIKU 5 (ETS 5)

Track KIKU 5 (ETS 5) now!
KIKU 5 (ETS 5) is classified as:


NORAD ID: 18316
Int'l Code: 1987-070A
Perigee: 36,022.0 km
Apogee: 36,097.8 km
Inclination: 15.4 °
Period: 1,449.7 minutes
Semi major axis: 42430 km
RCS: 3.3395 m2 (large)
Launch date: August 27, 1987
Source: Japan (JPN)
Launch site: TANEGASHIMA SPACE CENTER (TNSTA)
aabbcc
Your satellite tracking list
Your tracking list is empty




NASA's NSSDC Master Catalog

Two Line Element Set (TLE):
1 18316U 87070A   17322.60422609 +.00000031 +00000-0 +00000-0 0  9999
2 18316 015.3534 001.7256 0008940 295.6077 051.3378 00.99329847097712
Source of the keplerian elements: AFSPC